Tracking 23726 objects as of 16-Oct-2021
HD Live streaming from Space Station
objects crossing your sky now

USA 40 R/B DEB

Track USA 40 R/B DEB now!
10-day predictions


NORAD ID: 23367
Int'l Code: 1989-061AP
Perigee: 466.2 km
Apogee: 5,514.6 km
Inclination: 56.9 °
Period: 150.2 minutes
Semi major axis: 9361 km
RCS: Unknown
Launch date: August 8, 1989
Source: United States (US)
Launch site: AIR FORCE EASTERN TEST RANGE (AFETR)

Note: This is SATELLITE DEBRIS
aabbcc
Your satellite tracking list
Your tracking list is empty




NASA's NSSDC Master Catalog

Two Line Element Set (TLE):
1 23367U 89061AP  21288.24547271  .00010666  00000-0  43468-2 0  9994
2 23367  56.9328 122.0464 2696383 200.3774 146.5261  9.58495131 93186
Source of the keplerian elements: AFSPC